www.pogodaiklimat.ru

Погода и климат >> Архив погоды >> Финляндия >> Оулунсало Пеллонпаа


ПОГОДА в Оулунсало Пеллонпаа

  • Прогноз погоды в Оулунсало Пеллонпаа
  • Монитор погоды в Оулунсало Пеллонпаа

АРХИВ ПОГОДЫ в Оулунсало Пеллонпаа

Время (UTC), дата Ветер
(напр.,м/с)
 
Видим.   Явления Облачность Т
(С)
Тd
(С)
f
(%)
Тe
(С)
Тes
(С)
Комфортность P
(гПа)
Po
(гПа)
Тmin
(С)
Tmax
(С)
R
(мм)
R24
(мм)
S
(см)
15 16.07 С 3-7
{7}
45 км ясно +18.6 +7.3 48 +19 +23 1012.3 1010.9
18 16.07 С 2-4
{5}
50 км 3/1 1500 м
[]
+17.4 +7.1 51 +18 +18 1012.8 1011.4 +13.5 +19.2
21 16.07 СВ 1-2
{2}
50 км ясно +9.4 +8.0 91 +9 +9 1013.1 1011.7
00 17.07 СВ 2-3
{3}
50 км 1/0 1500 м
[]
+8.9 +8.4 97 +7 +7 1013.0 1011.6
03 17.07 штиль 0-1
{2}
50 км 9/0
[]
+11.1 +8.7 85 +10 +11 1012.8 1011.3
06 17.07 штиль 0
{3}
50 км 8/8 1500 м
[]
+13.5 +9.6 77 +13 +15 1012.7 1011.3 +7.8 +17.4
09 17.07 Ю 1-2
{2}
50 км 9/9 2000 м
[]
+16.1 +11.5 74 +17 +18 1012.6 1011.3
12 17.07 Ю 2-4
{6}
50 км 9/1 1500 м
[]
+17.8 +10.7 63 +18 +24 1012.5 1011.1
15 17.07 СЗ 2-2
{6}
12 км слаб. ливневой дождь 10/0 1500 м
[]
+13.6 +12.8 95 +13 +15 1012.7 1011.3 0.4
18 17.07 С 2-3
{3}
50 км ясно +15.6 +10.9 74 +16 +16 1012.4 1011.0 +13.2 +18.5 0.7
21 17.07 В 1-1
{2}
1200 м дымка 6/0
[]
+8.8 +8.8 100 +8 +8 1013.0 1011.6
00 18.07 В 1-1
{2}
500 м туман ясно +6.5 +6.5 100 +5 +5 1013.4 1011.9
03 18.07 В 1-3
{3}
14 км ясно +8.8 +8.8 100 +8 +9 1013.6 1012.1
06 18.07 СВ 2-4
{4}
35 км ясно +14.2 +10.6 79 +14 +19 1013.8 1012.4 +5.8 +15.6
09 18.07 СВ 3-5
{6}
45 км 9/0 1000 м
[]
+15.7 +10.7 72 +15 +20 1013.8 1012.4
12 18.07 СВ 2-4
{5}
50 км 9/0 2000 м
[]
+18.0 +11.2 64 +19 +24 1013.6 1012.2
15 18.07 -6
{7}
40 км 3/0 1000 м
[]
+18.3 +11.8 66 1013.2 1011.8
18 18.07 СВ 3-5
{6}
50 км 1/1 1000 м
[]
+17.9 +10.7 63 +18 +18 1013.0 1011.7 +14.2 +19.4
21 18.07 СВ 2-3
{3}
50 км ясно +12.7 +10.9 89 +12 +12 1013.8 1012.4
00 19.07 С 1-2
{3}
1200 м в посл. час туман ясно +8.8 +8.8 100 +8 +8 1014.1 1012.7
03 19.07 С 1-2
{2}
45 км ясно +11.1 +11.1 100 +11 +12 1014.0 1012.6
06 19.07 СЗ 3-4
{5}
40 км ясно +15.1 +11.4 79 +14 +19 1013.9 1012.5 +7.4 +18.0
09 19.07 СЗ 3-5
{5}
45 км 3/3 600 м
[]
+17.3 +11.9 71 +17 +23 1013.8 1012.4
12 19.07 СЗ 3-6
{6}
45 км ясно +19.6 +11.4 59 +21 +30 комфорт 1013.2 1011.8
15 19.07 СЗ 4-8
{10}
45 км ясно +18.4 +12.5 68 +19 +22 1012.9 1011.5
18 19.07 С 3-5
{7}
50 км 3/3 1000 м
[]
+17.6 +13.3 76 +18 +18 1012.8 1011.4 +15.0 +19.8
21 19.07 СВ 1-2
{2}
2500 м дымка ясно +12.2 +11.9 98 +12 +12 1013.6 1012.2
00 20.07 -2
{2}
1600 м в посл. час туман ясно +9.0 +9.0 100 1014.1 1012.7
03 20.07 В 1-2
{2}
3800 м дымка ясно +11.3 +11.3 100 +11 +12 1014.4 1013.0
06 20.07 С 2-3
{3}
50 км ясно +18.0 +12.0 68 +19 +24 1014.8 1013.5 +8.2 +18.3
09 20.07 С 2-5
{5}
40 км 1/0 2000 м
[]
+21.2 +12.0 56 +23 +33 комфорт 1015.2 1013.8
12 20.07 СЗ 4-6
{8}
50 км ясно +21.5 +9.7 47 +23 +30 комфорт 1015.7 1014.3
15 20.07 СЗ 3-5
{6}
45 км ясно +20.7 +10.4 52 +23 +27 комфорт 1015.5 1014.1
18 20.07 С 2-3
{4}
50 км ясно +18.8 +11.6 63 +20 +21 1015.7 1014.3 +18.0 +22.1
21 20.07 СЗ 1-1
{2}
2000 м дымка ясно +11.5 +11.5 100 +11 +11 1016.5 1015.0
00 21.07 ЮВ 1-2
{2}
1200 м в посл. час туман ясно +7.8 +7.8 100 +7 +7 1017.0 1015.5
03 21.07 Ю 1-2
{2}
5000 м дымка ясно +10.7 +10.7 100 +10 +11 1017.1 1015.7
06 21.07 ЮВ 1-3
{3}
45 км ясно +19.6 +11.7 60 +22 +28 комфорт 1017.2 1015.8 +7.3 +19.9
09 21.07 Ю 2-4
{4}
40 км ясно +23.1 +9.1 41 +25 +35 комфорт 1017.1 1015.8
12 21.07 С 2-4
{5}
40 км ясно +24.7 +11.0 42 +26 +36 жарко 1016.9 1015.5
15 21.07 СЗ 2-4
{5}
45 км ясно +24.5 +12.0 46 +26 +31 жарко 1016.3 1014.9
18 21.07 С 1-2
{3}
50 км ясно +22.8 +11.6 49 +25 +26 комфорт 1016.0 1014.6 +19.6 +25.1
21 21.07 СВ 1-1
{2}
45 км ясно +13.5 +12.6 94 +14 +14 1016.3 1014.8
00 22.07 ЮВ 1-2
{3}
40 км ясно +11.5 +11.3 99 +11 +11 1016.4 1015.0
03 22.07 ЮВ 2-3
{3}
50 км ясно +14.9 +10.1 73 +15 +15 1016.2 1014.8
06 22.07 ЮВ 2-3
{3}
40 км ясно +22.6 +13.2 55 +26 +31 жарко 1015.9 1014.5 +11.2 +22.8
09 22.07 Ю 2-6
{6}
30 км ясно +28.3 +9.3 30 +28 +39 жарко 1015.5 1014.2
12 22.07 ЮВ 2-5
{6}
30 км 3/0 2000 м
[]
+28.8 +8.8 29 +29 +37 жарко 1015.0 1013.6
15 22.07 Ю 2-3
{4}
40 км ясно +28.5 +10.9 33 +29 +33 жарко 1014.3 1012.9
18 22.07 Ю 2-3
{4}
50 км ясно +24.1 +13.0 50 +26 +27 жарко 1014.3 1013.0 +22.6 +30.0
21 22.07 ЮВ 1-2
{2}
50 км ясно +15.4 +13.2 87 +16 +16 1014.9 1013.5
00 23.07 ЮВ 1-2
{3}
50 км ясно +12.9 +10.9 88 +13 +13 1015.3 1013.9
03 23.07 ЮВ 2-4
{4}
40 км ясно +14.9 +11.8 82 +15 +15 1015.7 1014.3
06 23.07 Ю 2-4
{5}
40 км ясно +22.5 +13.6 57 +26 +31 жарко 1015.7 1014.3 +12.8 +24.1
09 23.07 Ю 2-4
{6}
30 км ясно +27.0 +12.2 40 +28 +39 жарко 1016.1 1014.7
12 23.07 С 3-5
{5}
40 км 3/0 2000 м
[]
+27.0 +13.3 43 +29 +36 жарко 1015.7 1014.3

 

Местоположение метеостанции Оулунсало Пеллонпаа (Финляндия): широта 64.94 долгота 25.37 высота над уровнем моря 10 м.

В архиве по умолчанию представлена погода в Оулунсало Пеллонпаа за последнюю неделю. Архивные данные за месяц целиком и за предыдущие месяцы, начиная с января 2011 года, Вы можете получить, выбрав интересующий диапазон дат из раскрывающегося списка и нажав кнопку "Ввод!".


*Определитесь, кто Вы:
робот инопланетянин человек

Внимание! Время в таблицах - всемирное. Для получения местного времени необходимо прибавить поправку, которая равна 1 ч.

Смотрите также архив погоды в соседних городах и на ближайших метеорологических станциях:

Погода в Оулу (Финляндия) (8 км)
Погода в Хайлуото (Финляндия) (31 км)
Погода в Ревонлахти (Финляндия) (32 км)
Погода на Маяке Marjaniemi (Финляндия) (40 км)
Погода в Раахе Лапалуто (Финляндия) (54 км)
Погода на Гуфускаларе (Исландия) (68 км)
Погода в Ваала Пэлсо (Финляндия) (70 км)
Погода в Кеми (Финляндия) (78 км)
Погода на Маяке Nahkiainen (Финляндия) (78 км)
Погода в Мустиккамаки (Финляндия) (89 км)

Пояснения к столбцам:

Ветер - указаны скорость ветра в м/с - средняя за 10 мин, порывы в срок и между сроками (в фигурных скобках) и направление, откуда дует ветер: С - северный, СВ - северо-восточный, В - восточный, ЮВ - юго-восточный, Ю - южный, ЮЗ - юго-западный, З - западный, СЗ - северо-западный.
Видимость - горизонтальная дальность видимости в метрах или километрах. При видимости от 1 до 10 км при отсутствии осадков обычно наблюдается дымка, при ухудшении видимости до 1 км и менее - туман. В сухую погоду видимость может ухудшаться дымом, пылью или мглою.
Явления - указаны атмосферные явления, наблюдавшиеся в срок или в последний час перед сроком; фигурными скобками обозначены явления, наблюдавшиеся между сроками (за 1-3 часа до срока); квадратными скобками обозначены град или гололедные отложения с указанием их диаметра в мм.
Облачность - указаны через наклонную черту общая и нижняя облачность в баллах и высота нижней границы облаков в метрах; квадратными скобками обозначены формы облаков: Ci - перистые, Cs - перисто-слоистые, Cc - перисто-кучевые, Ac - высококучевые, As - высокослоистые, Sc - слоисто-кучевые, Ns - слоисто-дождевые, Cu - кучевые, Cb - кучево-дождевые. Подробнее классификацию облаков см. в Атласе облаков (PDF).
T - Температура воздуха - температура, измеренная на высоте 2 м над землей.
Td - Температура точки росы - температура, при понижении до которой содержащийся в воздухе водяной пар достигнет насыщения.
f - Относительная влажность воздуха - влажноcть воздуха, измеренная на высоте 2 м над землей.
Te - Эффективная температура - температура, которую ощущает одетый по сезону человек в тени. Характеристика душности погоды. При расчете учитывается влияние влажности воздуха и скорости ветра на теплоощущения человека.
Tes - Эффективная температура на солнце - температура, которую ощущает человек, с поправкой на солнечный нагрев. Характеристика знойности погоды. Зависит от высоты солнца над горизонтом, облачности и скорости ветра. Ночью, в пасмурную погоду, а также при ветре 12 м/с и более поправка равна нулю.
P - Атмосферное давление - приведенное к уровню моря атмосферное давление.
Po - Атмосферное давление - измеренное на уровне метеостанции атмосферное давление.
Tmin - Минимальная температура - минимум температуры воздуха на высоте 2 м над землей.
Tmax - Максимальная температура - максимум температуры воздуха на высоте 2 м над землей.
R - Количество осадков - Количество выпавших осадков за период времени, мм. При наведении курсора мыши на число - период времени, за который выпало указанное количество осадков.
R24 - Количество осадков - Количество выпавших осадков за 24 часа, мм.
S - Снежный покров - Высота снежного покрова, см. При наведении курсора мыши на число - состояние снежного покрова и степень покрытия местности в баллах.